Regional Weather Roundup
Issued by NWS

Home | Current Version | Previous Version | Text Only | Print | Product List | Glossary Off
Versions: 1 2 3 4 5 6 7 8 9 10 11 12 13 14 15 16 17 18 19 20 21 22 23 24 25 26 27 28 29 30 31 32 33 34 35 36 37 38 39 40 41 42 43 44 45 46 47 48 49 50

000
ASUS45 KTFX 311710
RWRMT
MONTANA REGIONAL WEATHER ROUNDUP
NATIONAL WEATHER SERVICE GREAT FALLS MT
1100 AM MDT MON AUG 31 2015

NOTE: "FAIR" INDICATES FEW OR NO CLOUDS BELOW 12000 FEET WITH NO
SIGNIFICANT WEATHER AND/OR OBSTRUCTIONS TO VISIBILITY.

MTZ001>007-043-311800-
WEST OF THE DIVIDE

CITY           SKY/WX    TMP DP  RH WIND       PRES   REMARKS
KALISPELL      PTSUNNY   60  39  45 SW14      30.00F
MISSOULA       PTSUNNY   57  46  66 NW3       30.08R
BUTTE          SUNNY     59  33  37 W10       30.11S
MULLAN PASS    PTSUNNY   44  38  79 VRB5      30.10S
DEER LODGE       N/A     59  37  44 SE5       30.11F
EUREKA           N/A     59  41  51 SE12      29.99R
HAMILTON         N/A     63  41  45 S7        30.07S
LIBBY            N/A     61  39  44 S5        30.03R
$$

MTZ008-052>055-311800-
SOUTHWEST MONTANA

CITY           SKY/WX    TMP DP  RH WIND       PRES   REMARKS
BOZEMAN        SUNNY     62  38  40 N6        30.07F
DILLON         SUNNY     64  37  36 SW8       30.09S
W YELLOWSTONE  SUNNY     59  27  29 S14G23    30.19S
$$

MTZ009-010-012-014-046-048-049-054-311800-
EAST SLOPES AND CENTRAL MONTANA

CITY           SKY/WX    TMP DP  RH WIND       PRES   REMARKS
CUT BANK       CLOUDY    58  34  40 W38G56    29.87S
GREAT FALLS    MOSUNNY   67  34  29 SW23G35   29.94S
MALMSTROM AFB  MOSUNNY   66  34  30 SW25G35   29.95R
HELENA         MOSUNNY   67  34  29 NW10G20   30.03S
CONRAD           N/A     65  35  32 S6        29.93S
$$

MTZ011-013-016-021-045-047-050-051-311800-
NORTH CENTRAL MONTANA

CITY           SKY/WX    TMP DP  RH WIND       PRES   REMARKS
HAVRE          MOSUNNY   69  34  27 MISG      29.86S
LEWISTOWN      MOSUNNY   65  33  30 W13G21    29.97S
N BAR RANCH      N/A     63  36  36 CALM      29.99S
CHINOOK          N/A     68  36  30 SW18      29.86R
FORT BENTON      N/A     68  34  28 SW18G28   29.90S
$$

MTZ017>020-022>027-061-062-311800-
NORTHEAST MONTANA

CITY           SKY/WX    TMP DP  RH WIND       PRES   REMARKS
GLASGOW        SUNNY     68  41  37 W18       29.88S
JORDAN           N/A     70  32  24 W15       29.92F
SIDNEY         SUNNY     72  39  30 W10       29.90F
WOLF POINT     SUNNY     70  43  37 W17G23    29.89S
MALTA            N/A     68  40  35 SW13      29.84S
PLENTYWOOD       N/A     68  39  34 W18G30    29.85R
POPLAR           N/A     68  41  37 SW17      29.90R
$$

MTZ028>42-056>058-311800-
SOUTHCENTRAL AND SOUTHEAST MONTANA

CITY           SKY/WX    TMP DP  RH WIND       PRES   REMARKS
BAKER          SUNNY     69  43  38 NW9       30.00R
BILLINGS       PTSUNNY   67  38  34 SW7       30.00S
LIVINGSTON     MOSUNNY   71  34  25 W15       30.01F
MILES CITY     SUNNY     69  43  38 SW10      29.97S
EKALAKA          N/A     66  41  40 W6        30.00R
FORSYTH          N/A     72  37  28 W7        29.96S
LAUREL           N/A     66  41  40 E1        29.99S
$$

REGIONAL REPORTS...DAKOTAS

CITY           SKY/WX    TMP DP  RH WIND       PRES   REMARKS
WILLISTON      SUNNY     71  40  32 W17G25    29.88F
MINOT          SUNNY     72  43  35 W24G33    29.84R
DICKINSON      SUNNY     71  42  35 NW18      29.94R
CROSBY           N/A     68  41  37 W28G36    29.83S
BISMARCK       PTSUNNY   74  53  48 NW17G23   29.88R
GRAND FORKS    CLOUDY    76  66  71 NW16G24   29.73R
FARGO          MOSUNNY   81  64  56 SW15      29.74R
BUFFALO SD       N/A     70  44  39 NW15      29.93R
RAPID CITY     CLOUDY    69  54  58 N17G23    30.01R
$$

REGIONAL REPORTS...WYOMING/IDAHO/WASHINGTON

CITY           SKY/WX    TMP DP  RH WIND       PRES   REMARKS
GILLETTE       SUNNY     68  44  42 N7        30.06S
SHERIDAN       SUNNY     70  43  37 E13       30.02F
BUFFALO WY     SUNNY     67  43  41 SE14G22   30.08F
CODY           SUNNY     73  27  17 SW6       30.03F
YELLOWSTONE LA   N/A     57  23  26 SW9G22    30.26S
IDAHO FALLS    SUNNY     65  40  39 SW16      30.14S
SALMON         SUNNY     57  39  51 N3        30.09F
BOISE          SUNNY     65  43  44 N5        30.09F
SPOKANE        PTSUNNY   58  44  60 S14       30.05R
$$

REGIONAL REPORTS...ALBERTA

CITY           SKY/WX    TMP DP  RH WIND       PRES   REMARKS
EDMONTON       PTSUNNY   66  41  39 NW6       29.58R
CALGARY        PTSUNNY   64  36  34 SW7       29.70S
LETHBRIDGE     PTSUNNY   68  37  32 W29G41    29.79R
WATERTON GATE    N/A     54  37  54 SW17G28     N/A
CARDSTON         N/A     59  36  41 SW22G36     N/A
MILK RIVER       N/A     64  36  34 W30G40      N/A
ONEFOUR          N/A     66  32  28 W24G33      N/A
$$

REGIONAL REPORTS...SASKATCHEWAN

CITY           SKY/WX    TMP DP  RH WIND       PRES   REMARKS
SWIFT CURRENT  SUNNY     68  36  30 W25G35    29.74R
REGINA         MOSUNNY   66  45  45 W22G31    29.72S
SASKATOON      MOSUNNY   70  46  43 W15G22    29.61R
CYPRESS HILLS    N/A     61  32  33 W14G25      N/A
VAL MARIE        N/A     64  36  34 W24G33      N/A
ROCKGLEN         N/A     63  43  48 SW22G30     N/A
$$


USA.gov is the U.S. government's official web portal to all federal, state and local government web resources and services.